IZ2OSD Weather Reports


time (UTC)temp
F
wind
direction
speed
knots
gust
knots
rain 1hr
in
rain 24hr
in
rain mn
in
humidity
%
barometer
mb
20260906063852 77 292 0.9 1.7 0.00 0.00 0.00 61 1021.7
20260906062851 77 337 0.0 0.9 0.00 0.00 0.00 60 1021.8
20260906061846 78 0.0 0.0 0.00 0.00 0.00 59 1021.8
20260906061000 78 0.0 0.0 0.00 0.00 0.00 60 1021.5
20260906055833 78 337 0.0 0.9 0.00 0.00 0.00 62 1021.1
20260906054829 76 315 0.9 1.7 0.00 0.00 0.00 62 1020.9
20260906053849 76 0.0 0.0 0.00 0.00 0.00 64 1020.8
20260906052822 75 315 0.9 2.6 0.00 0.00 0.00 66 1020.6
20260906051819 74 315 1.7 2.6 0.00 0.00 0.00 66 1020.7
20260906050818 74 315 1.7 2.6 0.00 0.00 0.00 67 1020.5
20260906045812 74 315 0.9 1.7 0.00 0.00 0.00 67 1020.4
20260906044808 74 0.0 0.9 0.00 0.00 0.00 67 1020.3
20260906042823 75 315 1.7 1.7 0.00 0.00 0.00 69 1020.2
20260906041819 75 315 0.0 1.7 0.00 0.00 0.00 68 1020.0
20260906040814 75 0 0.9 2.6 0.00 0.00 0.00 70 1019.9
20260906035811 75 315 2.6 5.2 0.00 0.00 0.00 71 1019.9
20260906034809 75 320 0.9 3.5 0.00 0.00 0.00 71 1019.9
20260906033759 76 337 1.7 3.5 0.00 0.00 0.00 71 1019.9
20260906032755 76 0 2.6 5.2 0.00 0.00 0.00 71 1019.9
20260906031752 76 315 2.6 5.2 0.00 0.00 0.00 71 1019.8
20260906030748 76 315 2.6 5.2 0.00 0.00 0.00 71 1019.4
20260906025745 76 335 2.6 5.2 0.00 0.00 0.00 72 1019.5
20260906024735 76 315 1.7 3.5 0.00 0.00 0.00 72 1019.6
20260906023731 77 0.0 1.7 0.00 0.00 0.00 72 1019.6
20260906022722 77 315 3.5 5.2 0.00 0.00 0.00 72 1019.3
20260906021736 77 292 2.6 5.2 0.00 0.00 0.00 72 1019.4
20260906020714 77 337 0.9 5.2 0.00 0.00 0.00 71 1019.2
20260906015730 77 315 2.6 5.2 0.00 0.00 0.00 69 1019.0
20260906014701 77 315 2.6 7.8 0.00 0.00 0.00 67 1019.2
20260906013657 77 337 1.7 3.5 0.00 0.00 0.00 66 1019.5
20260906012321 77 22 1.7 2.6 0.00 0.00 0.00 65 1019.3
20260906010136 77 45 2.6 5.2 0.00 0.00 0.00 62 1018.9
20260906005153 77 337 1.7 3.5 0.00 0.00 0.00 61 1019.1
20260906004131 77 0 3.5 5.2 0.00 0.00 0.00 59 1019.1
20260906003107 76 45 0.9 2.6 0.00 0.00 0.00 57 1019.0
20260906002102 76 0.0 0.0 0.00 0.00 0.00 55 1019.1
20260906001059 76 315 0.0 0.9 0.00 0.00 0.00 57 1019.1
20260906000056 77 315 0.9 1.7 0.00 0.00 0.00 56 1019.1
20260905234727 77 315 0.0 2.6 0.00 0.00 0.00 54 1018.9
20260905233723 78 90 0.0 0.9 0.00 0.00 0.00 53 1019.0
20260905232742 77 0.0 0.0 0.00 0.00 0.00 52 1019.1
20260905231711 78 337 0.9 1.7 0.00 0.00 0.00 51 1018.9
20260905230710 77 315 0.9 3.5 0.00 0.00 0.00 54 1019.0
20260905225702 77 90 2.6 5.2 0.00 0.00 0.00 53 1018.5
20260905224659 78 315 0.9 1.7 0.00 0.00 0.00 52 1018.5
20260905223838 79 315 1.7 2.6 0.00 0.00 0.00 51 1018.1
20260905221838 79 315 1.7 2.6 0.00 0.00 0.00 51 1018.2
20260905220835 80 315 0.0 1.7 0.00 0.00 0.00 49 1018.2
20260905215853 81 0.0 0.9 0.00 0.00 0.00 47 1018.1
20260905214823 81 315 1.7 2.6 0.00 0.00 0.00 47 1017.4
20260905213819 81 315 2.6 2.6 0.00 0.00 0.00 48 1017.7
20260905212815 81 315 1.7 3.5 0.00 0.00 0.00 49 1017.7
20260905211812 81 315 1.7 3.5 0.00 0.00 0.00 49 1017.7
20260905210809 82 315 2.6 3.5 0.00 0.00 0.00 50 1017.5
20260905205401 81 315 0.9 1.7 0.00 0.00 0.00 52 1017.5
20260905204334 81 315 2.6 2.6 0.00 0.00 0.00 54 1017.7
20260905203353 80 315 0.9 1.7 0.00 0.00 0.00 57 1017.4
20260905202322 80 292 0.9 1.7 0.00 0.00 0.00 59 1017.4
20260905201318 80 315 1.7 3.5 0.00 0.00 0.00 62 1017.3
20260905200313 80 315 0.9 1.7 0.00 0.00 0.00 63 1017.5
20260905195330 81 315 0.9 1.7 0.00 0.00 0.00 63 1017.3
20260905194306 81 315 0.0 0.9 0.00 0.00 0.00 63 1017.0
20260905193302 81 0.0 0.0 0.00 0.00 0.00 65 1016.9
20260905192319 82 315 0.0 0.9 0.00 0.00 0.00 64 1017.1
20260905191256 81 315 2.6 2.6 0.00 0.00 0.00 64 1017.0
20260905185819 83 0.0 0.0 0.00 0.00 0.00 59 1017.0
20260905184816 84 0.0 0.0 0.00 0.00 0.00 58 1016.6
20260905183812 84 0.0 0.0 0.00 0.00 0.00 57 1016.2
20260905182808 85 0.0 0.0 0.00 0.00 0.00 56 1016.2
20260905181331 85 0.0 0.0 0.00 0.00 0.00 56 1016.2
20260905180327 86 0.0 0.0 0.00 0.00 0.00 55 1016.2
20260905175324 86 0.0 0.0 0.00 0.00 0.00 54 1016.1
20260905174341 87 0.0 0.0 0.00 0.00 0.00 53 1015.9
20260905172328 87 0.0 0.0 0.00 0.00 0.00 53 1015.9
20260905171324 87 0.0 0.0 0.00 0.00 0.00 53 1015.8
20260905170321 88 0.0 0.9 0.00 0.00 0.00 52 1016.0
20260905164857 89 315 0.0 0.9 0.00 0.00 0.00 52 1015.8
20260905160124 90 0.0 0.0 0.00 0.00 0.00 47 1015.8
20260905155121 90 0.0 0.0 0.00 0.00 0.00 49 1015.8
20260905153657 90 315 0.9 2.6 0.00 0.00 0.00 49 1015.5
20260905151724 91 0.0 0.0 0.00 0.00 0.00 47 1015.7
20260905150744 91 315 1.7 3.5 0.00 0.00 0.00 47 1015.6
20260905145718 91 337 1.7 3.5 0.00 0.00 0.00 46 1015.8
20260905144734 91 315 0.9 2.6 0.00 0.00 0.00 46 1015.4
20260905143710 92 315 0.9 1.7 0.00 0.00 0.00 46 1015.6
20260905142701 93 0.0 0.0 0.00 0.00 0.00 45 1015.7
20260905141658 92 225 0.0 1.7 0.00 0.00 0.00 46 1016.1
20260905135907 92 337 0.9 1.7 0.00 0.00 0.00 46 1016.0
20260905134902 92 315 0.0 0.9 0.00 0.00 0.00 46 1015.9
20260905133859 92 315 0.0 1.7 0.00 0.00 0.00 47 1016.0
20260905132856 92 315 0.9 1.7 0.00 0.00 0.00 46 1016.0
20260905130903 92 90 0.0 0.9 0.00 0.00 0.00 45 1016.4
20260905125900 92 315 0.9 2.6 0.00 0.00 0.00 45 1016.4
20260905124857 92 292 0.9 2.6 0.00 0.00 0.00 46 1016.7
20260905123522 91 315 0.0 1.7 0.00 0.00 0.00 47 1016.7
20260905122512 91 337 0.9 3.5 0.00 0.00 0.00 47 1016.5
20260905121508 91 0.0 0.0 0.00 0.00 0.00 47 1016.4
20260905120523 91 315 0.9 2.6 0.00 0.00 0.00 46 1016.6
20260905115502 91 315 0.9 1.7 0.00 0.00 0.00 47 1016.9
20260905114457 91 315 0.9 1.7 0.00 0.00 0.00 47 1016.9
20260905113109 89 315 2.6 2.6 0.00 0.00 0.00 48 1016.9
20260905112105 91 0.0 0.0 0.00 0.00 0.00 46 1016.8
20260905111100 89 315 0.0 0.9 0.00 0.00 0.00 49 1016.8
20260905110059 89 292 0.9 1.7 0.00 0.00 0.00 49 1017.0
20260905104816 90 315 1.7 2.6 0.00 0.00 0.00 47 1016.9
20260905103813 89 315 0.9 1.7 0.00 0.00 0.00 48 1017.1
20260905102829 89 315 0.9 1.7 0.00 0.00 0.00 49 1016.8
20260905100728 88 315 0.9 2.6 0.00 0.00 0.00 52 1016.7
20260905095725 88 0.0 0.0 0.00 0.00 0.00 52 1017.0
20260905094721 88 157 0.9 1.7 0.00 0.00 0.00 53 1017.3
20260905093223 86 292 0.0 0.9 0.00 0.00 0.00 54 1017.0
20260905092241 86 0.0 0.0 0.00 0.00 0.00 55 1017.0
20260905091217 86 292 0.9 1.7 0.00 0.00 0.00 53 1017.3
20260905090212 85 292 0.0 0.9 0.00 0.00 0.00 55 1016.9
20260905085230 84 0.0 0.0 0.00 0.00 0.00 58 1017.1
20260905083225 81 0.0 0.0 0.00 0.00 0.00 62 1016.6
20260905082221 82 0.0 0.0 0.00 0.00 0.00 59 1016.8
20260905081218 82 0.0 0.9 0.00 0.00 0.00 58 1016.7
20260905080212 82 0.0 0.9 0.00 0.00 0.00 59 1016.6
20260905075209 81 0.0 0.0 0.00 0.00 0.00 61 1016.5
20260905073725 82 292 0.9 0.9 0.00 0.00 0.00 58 1016.6
20260905072722 82 0.0 0.9 0.00 0.00 0.00 59 1016.3
20260905071718 79 0.0 0.0 0.00 0.00 0.00 63 1016.4
20260905070714 77 0.0 0.0 0.00 0.00 0.00 64 1016.3
20260905065731 77 292 0.0 0.9 0.00 0.00 0.00 64 1016.5